User: anonymous   Login
Location: Caltech
(34.1382°N, 118.1253°W)
Time: 13:02:48
(UTC-07:00)
Language:

SL-08 R/B - Orbit

View from above orbital plane
View from above orbital plane
View from above satellite
View from above satellite

Ground track
Ground track

The orbit data is extracted from the following two-line orbital elements,

1 27561U 02054C   15210.50990071  .00000177  00000-0  50589-4 0  9998
2 27561 098.1626 344.8954 0047183 145.6378 214.7887 14.55380326672109
Epoch (UTC): 29 July 2015 12:14:15
Eccentricity: 0.0047183
inclination: 98.1626°
perigee height: 674 km
apogee height: 741 km
right ascension of ascending node: 344.8954°
argument of perigee: 145.6378°
revolutions per day: 14.55380326
mean anomaly at epoch: 214.7887°
orbit number at epoch: 67210

The dashed part of the orbit path shows where the satellite is in the earth's shadow,  

DLR